sat.trackr.live / text

‹ back to catalog

STARLINK-11592 [DTC]

NORAD 63560 · 2025-075N

PAYLOAD ACTIVE UNKNOWN

§ Identity

Operator
Country
US
Launch date
2025-04-13
Launch site
AFETR
Launch vehicle
Mass (kg)
RCS (m²)

Purposes: comms

External: N2YO · Heavens-Above · Gunter

§ Orbital elements

Epoch: 2026-09-20T11:12:59.852160Z

Period
91.67 min
Inclination
43.0010°
Eccentricity
0.0002360
Mean motion
15.70886674 rev/d
Perigee alt
354.8 km
Apogee alt
358.0 km
Semi-major
6,734.5 km
B*
1.0349e-3
RAAN
59.6029°
Arg perigee
268.7169°
Mean anomaly
91.3429°
Rev number
8,388

§ Raw data

STARLINK-11592 [DTC]1 63560U 25075N   26263.46735940  .00134787  00000+0  10349-2 0  99942 63560  43.0010  59.6029 0002360 268.7169  91.3429 15.70886674 83888

JSON: /api/v1/satellites/63560 · /tle

For live sub-satellite position, see the globe view (requires WebGL).

§ Visibility from observer

Set your observer location to see the next 7 days of passes ≥ 10°. The values pass through the URL so the page stays shareable.

No JS? Fill the form by hand. The geolocation button needs JavaScript.